Skip Page Navigation
NASA JPL Caltech
NASA Logo - Jet Propulsion Laboratory + View the NASA Portal
+ Near-Earth Object (NEO) Program
Search JPL
JPL Home Earth Solar System Stars & Galaxies Technology
JPL Solar System Dynamics
BODIES ORBITS EPHEMERIDES TOOLS PHYSICAL DATA DISCOVERY FAQ SITE MAP
JPL Small-Body Database Browser
Search: [ help ]  
36446 Cinodapistoia (2000 QV)
Classification: Main-belt Asteroid          SPK-ID: 2036446
Ephemeris | Orbit Diagram | Orbital Elements | Physical Parameters | Discovery Circumstances ]

[ show orbit diagram ]
Orbital Elements at Epoch 2456400.5 (2013-Apr-18.0) TDB
Reference: MPO250563 (heliocentric ecliptic J2000)
 Element Value Uncertainty (1-sigma)   Units 
e 0.1858306 n/a  
a 2.4302562 n/a AU
q 1.9786402 n/a AU
i 2.58302 n/a deg
node 23.26338 n/a deg
peri 343.04076 n/a deg
M 100.21017 n/a deg
tp 2456015.3004109
(2012-Mar-28.80041090)
n/a JED
period 1383.8101668
3.79
n/a
n/a
d
yr
n 0.26015129 n/a deg/d
Q 2.8818722 n/a AU
  Orbit Determination Parameters
   # obs. used (total)      437  
   first obs. used      1993-??-??  
   last obs. used      2013-01-10  
   # oppositions      12  
   planetary ephem.      DE403  
   condition code      0  
   fit RMS      0.50  
   data source      MPC:mpn  
   producer      MPCLINUX  

Additional Information
 T_jup = 3.483 

Ephemeris | Orbit Diagram | Orbital Elements | Physical Parameters | Discovery Circumstances ]

Physical Parameter Table
Parameter Symbol Value Units Sigma Reference Notes
absolute magnitude H 15.3 mag n/a PDS3 (MPO 24573)  

36446 Cinodapistoia           Discovered 2000 Aug. 22 by L. Tesi and A. Boattini at San Marcello Pistoiese.
Cino da Pistoia (1270-1337), whose full name was Guittoncino dei Sinibaldi (or Sighibuldi), was a Tuscan jurist and poet. A friend of Dante Alighieri and Francesco Petrarch, he wrote treatises on jurisprudence as well as numerous lyrics and sonnets dealing with the psychology of love.
NOTE: some special characters may not display properly (any characters within {} are an attempt to place the proper accent above a character)
Reference: 20050721/MPCPages.arcLast Updated: 2005-07-21

Alternate Designations
 2000 QV = 1995 GM5 
Ephemeris | Orbit Diagram | Orbital Elements | Physical Parameters | Discovery Circumstances ]
ABOUT SSD CREDITS/AWARDS PRIVACY/COPYRIGHT GLOSSARY LINKS
FirstGov 2013-May-24 21:41 UT
(server date/time)  
NASA Home Page
Site Manager:   Donald K. Yeomans
Webmaster  Alan B. Chamberlin